| time (UTC) | temp C | wind direction | speed KPH | gust KPH | rain 1hr cm | rain 24hr cm | rain mn cm | humidity % | barometer mb |
| 20260906131032 | 21 | 95 | 1.6 | 9.7 | 0.00 | 0.00 | 0.00 | 95 | 1018.9 |
| 20260906130531 | 20 | 86 | 6.4 | 9.7 | 0.00 | 0.00 | 0.00 | 96 | 1018.8 |
| 20260906130027 | 20 | 56 | 6.4 | 9.7 | 0.00 | 0.00 | 0.00 | 97 | 1018.8 |
| 20260906125524 | 20 | 48 | 4.8 | 6.4 | 0.00 | 0.00 | 0.00 | 97 | 1018.6 |
| 20260906125024 | 20 | 108 | 1.6 | 4.8 | 0.00 | 0.00 | 0.00 | 98 | 1018.9 |
| 20260906124520 | 20 | 70 | 3.2 | 6.4 | 0.00 | 0.00 | 0.00 | 98 | 1019.0 |
| 20260906124015 | 20 | 82 | 1.6 | 6.4 | 0.00 | 0.00 | 0.00 | 98 | 1018.6 |
| 20260906123514 | 20 | 61 | 3.2 | 6.4 | 0.00 | 0.00 | 0.00 | 98 | 1018.6 |
| 20260906123009 | 20 | 62 | 3.2 | 4.8 | 0.00 | 0.00 | 0.00 | 98 | 1018.6 |
| 20260906122503 | 19 | 45 | 4.8 | 6.4 | 0.00 | 0.00 | 0.00 | 98 | 1018.6 |
| 20260906121959 | 19 | 116 | 1.6 | 3.2 | 0.00 | 0.00 | 0.00 | 99 | 1018.4 |
| 20260906121455 | 19 | 102 | 1.6 | 4.8 | 0.00 | 0.00 | 0.00 | 98 | 1018.5 |
| 20260906120952 | 19 | 89 | 1.6 | 4.8 | 0.00 | 0.00 | 0.00 | 98 | 1018.5 |
| 20260906120447 | 19 | 71 | 3.2 | 6.4 | 0.00 | 0.00 | 0.00 | 98 | 1018.5 |
| 20260906115943 | 19 | 45 | 4.8 | 6.4 | 0.00 | 0.00 | 0.00 | 98 | 1018.5 |
| 20260906115438 | 19 | 96 | 3.2 | 6.4 | 0.00 | 0.00 | 0.00 | 98 | 1018.3 |
| 20260906114939 | 19 | 68 | 4.8 | 9.7 | 0.00 | 0.00 | 0.00 | 98 | 1018.1 |
| 20260906114438 | 19 | 60 | 3.2 | 11.3 | 0.00 | 0.00 | 0.00 | 98 | 1017.9 |
| 20260906113934 | 19 | 61 | 8.0 | 12.9 | 0.00 | 0.00 | 0.00 | 98 | 1017.8 |
| 20260906113432 | 19 | 69 | 8.0 | 11.3 | 0.00 | 0.00 | 0.00 | 98 | 1017.9 |
| 20260906112928 | 18 | 35 | 4.8 | 6.4 | 0.00 | 0.00 | 0.00 | 98 | 1017.7 |
| 20260906112424 | 18 | 78 | 3.2 | 6.4 | 0.00 | 0.00 | 0.00 | 98 | 1017.8 |
| 20260906111919 | 18 | 75 | 3.2 | 6.4 | 0.00 | 0.00 | 0.00 | 98 | 1017.8 |
| 20260906111419 | 18 | 82 | 1.6 | 4.8 | 0.00 | 0.00 | 0.00 | 98 | 1017.8 |
| 20260906110914 | 18 | 24 | 6.4 | 9.7 | 0.00 | 0.00 | 0.00 | 98 | 1017.7 |
| 20260906110409 | 18 | 62 | 8.0 | 9.7 | 0.00 | 0.00 | 0.00 | 98 | 1017.5 |
| 20260906105908 | 18 | 82 | 4.8 | 9.7 | 0.00 | 0.00 | 0.00 | 98 | 1017.5 |
| 20260906105404 | 18 | 86 | 3.2 | 6.4 | 0.00 | 0.00 | 0.00 | 98 | 1017.5 |
| 20260906104900 | 18 | 112 | 3.2 | 6.4 | 0.00 | 0.00 | 0.00 | 98 | 1017.6 |
| 20260906104358 | 18 | 42 | 6.4 | 6.4 | 0.00 | 0.00 | 0.00 | 98 | 1017.5 |
| 20260906103857 | 18 | 135 | 1.6 | 6.4 | 0.00 | 0.00 | 0.00 | 98 | 1017.4 |
| 20260906103355 | 18 | 56 | 4.8 | 6.4 | 0.00 | 0.00 | 0.00 | 98 | 1017.5 |
| 20260906102852 | 18 | 53 | 3.2 | 9.7 | 0.00 | 0.00 | 0.00 | 98 | 1017.4 |
| 20260906102350 | 18 | 99 | 0.0 | 6.4 | 0.00 | 0.00 | 0.00 | 98 | 1017.2 |
| 20260906101846 | 18 | 45 | 3.2 | 6.4 | 0.00 | 0.00 | 0.00 | 98 | 1017.3 |
| 20260906101341 | 18 | 31 | 4.8 | 6.4 | 0.00 | 0.00 | 0.00 | 98 | 1017.2 |
| 20260906100837 | 18 | 26 | 4.8 | 9.7 | 0.00 | 0.00 | 0.00 | 98 | 1017.1 |
| 20260906100335 | 18 | 103 | 3.2 | 4.8 | 0.00 | 0.00 | 0.00 | 97 | 1017.2 |
| 20260906095831 | 18 | 45 | 1.6 | 6.4 | 0.00 | 0.00 | 0.00 | 97 | 1017.2 |
| 20260906095326 | 18 | 9 | 6.4 | 9.7 | 0.00 | 0.00 | 0.00 | 97 | 1017.2 |
| 20260906094826 | 18 | 46 | 6.4 | 6.4 | 0.00 | 0.00 | 0.00 | 97 | 1017.3 |
| 20260906094320 | 18 | 94 | 3.2 | 9.7 | 0.00 | 0.00 | 0.00 | 97 | 1017.1 |
| 20260906093817 | 18 | 138 | 4.8 | 6.4 | 0.00 | 0.00 | 0.00 | 97 | 1017.0 |
| 20260906093313 | 17 | 126 | 1.6 | 3.2 | 0.00 | 0.00 | 0.00 | 97 | 1017.1 |
| 20260906092808 | 17 | 210 | 0.0 | 3.2 | 0.00 | 0.00 | 0.00 | 97 | 1017.2 |
| 20260906092307 | 17 | 149 | 0.0 | 0.0 | 0.00 | 0.00 | 0.00 | 97 | 1017.1 |
| 20260906091803 | 17 | 159 | 0.0 | 1.6 | 0.00 | 0.00 | 0.00 | 97 | 1016.9 |
| 20260906091259 | 18 | 160 | 0.0 | 1.6 | 0.00 | 0.00 | 0.00 | 97 | 1016.9 |
| 20260906090755 | 18 | 93 | 0.0 | 1.6 | 0.00 | 0.00 | 0.00 | 97 | 1016.8 |
| 20260906090254 | 18 | 134 | 0.0 | 1.6 | 0.00 | 0.00 | 0.00 | 97 | 1017.0 |
| 20260906085754 | 18 | 77 | 3.2 | 3.2 | 0.00 | 0.00 | 0.00 | 97 | 1017.0 |
| 20260906085253 | 18 | 129 | 0.0 | 4.8 | 0.00 | 0.00 | 0.00 | 97 | 1017.0 |
| 20260906084748 | 18 | 351 | 1.6 | 4.8 | 0.00 | 0.00 | 0.00 | 97 | 1017.2 |
| 20260906084248 | 18 | 125 | 1.6 | 4.8 | 0.00 | 0.00 | 0.00 | 96 | 1017.0 |
| 20260906083743 | 18 | 161 | 3.2 | 3.2 | 0.00 | 0.00 | 0.00 | 96 | 1017.1 |
| 20260906083238 | 18 | 357 | 1.6 | 4.8 | 0.00 | 0.00 | 0.00 | 96 | 1017.1 |
| 20260906082733 | 18 | 356 | 3.2 | 3.2 | 0.00 | 0.00 | 0.00 | 96 | 1017.0 |
| 20260906082228 | 18 | 131 | 0.0 | 1.6 | 0.00 | 0.00 | 0.00 | 96 | 1016.9 |
| 20260906081724 | 18 | 109 | 1.6 | 4.8 | 0.00 | 0.00 | 0.00 | 96 | 1017.0 |
| 20260906081219 | 18 | 33 | 4.8 | 4.8 | 0.00 | 0.00 | 0.00 | 96 | 1017.1 |
| 20260906080716 | 18 | 359 | 1.6 | 3.2 | 0.00 | 0.00 | 0.00 | 96 | 1017.1 |
| 20260906080212 | 18 | 143 | 0.0 | 3.2 | 0.00 | 0.00 | 0.00 | 96 | 1017.1 |
| 20260906075712 | 18 | 122 | 1.6 | 3.2 | 0.00 | 0.00 | 0.00 | 96 | 1017.0 |
| 20260906075206 | 18 | 9 | 3.2 | 3.2 | 0.00 | 0.00 | 0.00 | 96 | 1017.1 |
| 20260906074701 | 18 | 146 | 1.6 | 4.8 | 0.00 | 0.00 | 0.00 | 96 | 1017.3 |
| 20260906074200 | 18 | 351 | 3.2 | 6.4 | 0.00 | 0.00 | 0.00 | 95 | 1017.0 |
| 20260906073655 | 18 | 3 | 3.2 | 3.2 | 0.00 | 0.00 | 0.00 | 95 | 1017.3 |
| 20260906073151 | 18 | 74 | 1.6 | 3.2 | 0.00 | 0.00 | 0.00 | 95 | 1017.1 |
| 20260906072647 | 18 | 120 | 1.6 | 3.2 | 0.00 | 0.00 | 0.00 | 95 | 1017.3 |
| 20260906072142 | 18 | 152 | 1.6 | 3.2 | 0.00 | 0.00 | 0.00 | 95 | 1017.2 |
| 20260906071638 | 19 | 151 | 0.0 | 0.0 | 0.00 | 0.00 | 0.00 | 95 | 1017.3 |
| 20260906071138 | 19 | 111 | 0.0 | 1.6 | 0.00 | 0.00 | 0.00 | 94 | 1017.2 |
| 20260906070635 | 19 | 94 | 1.6 | 3.2 | 0.00 | 0.00 | 0.00 | 94 | 1017.2 |
| 20260906070130 | 19 | 136 | 0.0 | 1.6 | 0.00 | 0.00 | 0.00 | 94 | 1017.3 |
| 20260906065630 | 20 | 135 | 0.0 | 1.6 | 0.00 | 0.00 | 0.00 | 94 | 1017.2 |
| 20260906065125 | 20 | 127 | 0.0 | 3.2 | 0.00 | 0.00 | 0.00 | 94 | 1017.3 |
| 20260906064620 | 20 | 120 | 0.0 | 4.8 | 0.00 | 0.00 | 0.00 | 93 | 1017.2 |
| 20260906064115 | 20 | 72 | 3.2 | 6.4 | 0.00 | 0.00 | 0.00 | 93 | 1017.1 |
| 20260906063610 | 20 | 102 | 1.6 | 4.8 | 0.00 | 0.00 | 0.00 | 93 | 1017.3 |
| 20260906063106 | 20 | 37 | 3.2 | 4.8 | 0.00 | 0.00 | 0.00 | 93 | 1017.4 |
| 20260906062602 | 20 | 88 | 3.2 | 12.9 | 0.00 | 0.00 | 0.00 | 93 | 1017.2 |
| 20260906062101 | 20 | 43 | 4.8 | 9.7 | 0.00 | 0.00 | 0.00 | 92 | 1017.4 |
| 20260906061557 | 20 | 53 | 4.8 | 11.3 | 0.00 | 0.00 | 0.00 | 92 | 1017.3 |
| 20260906061056 | 20 | 38 | 3.2 | 9.7 | 0.00 | 0.00 | 0.00 | 92 | 1017.3 |
| 20260906060553 | 20 | 69 | 4.8 | 9.7 | 0.00 | 0.00 | 0.00 | 92 | 1017.2 |
| 20260906060050 | 20 | 64 | 3.2 | 9.7 | 0.00 | 0.00 | 0.00 | 92 | 1017.1 |
| 20260906055546 | 20 | 42 | 4.8 | 11.3 | 0.00 | 0.00 | 0.00 | 91 | 1017.2 |
| 20260906055041 | 20 | 100 | 4.8 | 6.4 | 0.00 | 0.00 | 0.00 | 91 | 1017.3 |
| 20260906054541 | 20 | 47 | 3.2 | 6.4 | 0.00 | 0.00 | 0.00 | 91 | 1017.2 |
| 20260906054036 | 20 | 48 | 3.2 | 9.7 | 0.00 | 0.00 | 0.00 | 91 | 1017.3 |
| 20260906053532 | 20 | 128 | 3.2 | 6.4 | 0.00 | 0.00 | 0.00 | 91 | 1017.2 |
| 20260906053028 | 20 | 62 | 1.6 | 9.7 | 0.00 | 0.00 | 0.00 | 91 | 1017.3 |
| 20260906052523 | 20 | 68 | 3.2 | 6.4 | 0.00 | 0.00 | 0.00 | 91 | 1017.1 |
| 20260906052020 | 20 | 35 | 4.8 | 9.7 | 0.00 | 0.00 | 0.00 | 90 | 1017.1 |
| 20260906051516 | 21 | 92 | 4.8 | 9.7 | 0.00 | 0.00 | 0.00 | 90 | 1017.0 |
| 20260906051011 | 21 | 49 | 4.8 | 11.3 | 0.00 | 0.00 | 0.00 | 90 | 1016.9 |
| 20260906050506 | 21 | 47 | 6.4 | 9.7 | 0.00 | 0.00 | 0.00 | 90 | 1017.0 |
| 20260906050006 | 21 | 83 | 4.8 | 12.9 | 0.00 | 0.00 | 0.00 | 90 | 1017.0 |
| 20260906045504 | 20 | 49 | 4.8 | 6.4 | 0.00 | 0.00 | 0.00 | 90 | 1017.0 |
| 20260906045000 | 20 | 46 | 4.8 | 11.3 | 0.00 | 0.00 | 0.00 | 90 | 1016.9 |
| 20260906044455 | 20 | 52 | 6.4 | 9.7 | 0.00 | 0.00 | 0.00 | 90 | 1016.8 |
| 20260906043951 | 21 | 53 | 4.8 | 9.7 | 0.00 | 0.00 | 0.00 | 90 | 1016.9 |
| 20260906043446 | 21 | 74 | 4.8 | 6.4 | 0.00 | 0.00 | 0.00 | 90 | 1017.0 |
| 20260906042942 | 21 | 39 | 3.2 | 11.3 | 0.00 | 0.00 | 0.00 | 90 | 1016.8 |
| 20260906042441 | 21 | 66 | 3.2 | 11.3 | 0.00 | 0.00 | 0.00 | 90 | 1016.7 |
| 20260906041936 | 21 | 64 | 3.2 | 6.4 | 0.00 | 0.00 | 0.00 | 90 | 1016.8 |
| 20260906041432 | 21 | 61 | 4.8 | 9.7 | 0.00 | 0.00 | 0.00 | 90 | 1016.7 |
| 20260906040932 | 21 | 46 | 4.8 | 6.4 | 0.00 | 0.00 | 0.00 | 90 | 1016.6 |
| 20260906040427 | 21 | 60 | 3.2 | 11.3 | 0.00 | 0.00 | 0.00 | 90 | 1016.4 |
| 20260906035922 | 21 | 34 | 3.2 | 9.7 | 0.00 | 0.00 | 0.00 | 90 | 1016.5 |
| 20260906035418 | 20 | 29 | 3.2 | 9.7 | 0.00 | 0.00 | 0.00 | 91 | 1016.4 |
| 20260906034913 | 20 | 56 | 4.8 | 6.4 | 0.00 | 0.00 | 0.00 | 91 | 1016.3 |
| 20260906034413 | 20 | 79 | 6.4 | 11.3 | 0.00 | 0.00 | 0.00 | 91 | 1016.3 |
| 20260906033908 | 20 | 101 | 3.2 | 6.4 | 0.00 | 0.00 | 0.00 | 91 | 1016.2 |
| 20260906033408 | 20 | 54 | 4.8 | 6.4 | 0.00 | 0.00 | 0.00 | 91 | 1016.1 |
| 20260906032904 | 20 | 47 | 4.8 | 6.4 | 0.00 | 0.00 | 0.00 | 90 | 1016.1 |
| 20260906032400 | 21 | 44 | 3.2 | 9.7 | 0.00 | 0.00 | 0.00 | 90 | 1015.8 |
| 20260906031855 | 21 | 65 | 6.4 | 9.7 | 0.00 | 0.00 | 0.00 | 89 | 1015.9 |
| 20260906031350 | 21 | 43 | 4.8 | 6.4 | 0.00 | 0.00 | 0.00 | 89 | 1015.9 |
| 20260906030846 | 21 | 53 | 4.8 | 11.3 | 0.00 | 0.00 | 0.00 | 88 | 1015.9 |
| 20260906030341 | 21 | 48 | 4.8 | 12.9 | 0.00 | 0.00 | 0.00 | 87 | 1015.8 |
| 20260906025840 | 21 | 53 | 6.4 | 11.3 | 0.00 | 0.00 | 0.00 | 87 | 1015.7 |
| 20260906025334 | 21 | 46 | 8.0 | 14.5 | 0.00 | 0.00 | 0.00 | 88 | 1015.9 |
| 20260906024834 | 21 | 43 | 4.8 | 11.3 | 0.00 | 0.00 | 0.00 | 88 | 1015.9 |
| 20260906024333 | 21 | 38 | 8.0 | 12.9 | 0.00 | 0.00 | 0.00 | 88 | 1016.0 |
| 20260906023829 | 21 | 60 | 4.8 | 16.1 | 0.00 | 0.00 | 0.00 | 88 | 1016.0 |
| 20260906023325 | 21 | 55 | 4.8 | 12.9 | 0.00 | 0.00 | 0.00 | 88 | 1015.7 |
| 20260906022820 | 21 | 44 | 8.0 | 11.3 | 0.00 | 0.00 | 0.00 | 88 | 1015.6 |
| 20260906022315 | 21 | 70 | 6.4 | 6.4 | 0.00 | 0.00 | 0.00 | 88 | 1015.9 |
| 20260906021811 | 21 | 49 | 6.4 | 12.9 | 0.00 | 0.00 | 0.00 | 88 | 1015.8 |
| 20260906021310 | 21 | 36 | 6.4 | 12.9 | 0.00 | 0.00 | 0.00 | 88 | 1015.8 |
| 20260906020810 | 21 | 39 | 8.0 | 14.5 | 0.00 | 0.00 | 0.00 | 88 | 1015.7 |
| 20260906020309 | 21 | 79 | 4.8 | 6.4 | 0.00 | 0.00 | 0.00 | 89 | 1015.8 |
| 20260906015804 | 21 | 50 | 4.8 | 9.7 | 0.00 | 0.00 | 0.00 | 89 | 1015.9 |
| 20260906015305 | 21 | 52 | 6.4 | 9.7 | 0.00 | 0.00 | 0.00 | 89 | 1015.9 |
| 20260906014803 | 21 | 70 | 3.2 | 9.7 | 0.00 | 0.00 | 0.00 | 89 | 1015.7 |
| 20260906014258 | 21 | 60 | 4.8 | 9.7 | 0.00 | 0.00 | 0.00 | 89 | 1015.9 |
| 20260906013754 | 21 | 76 | 3.2 | 6.4 | 0.00 | 0.00 | 0.00 | 89 | 1015.9 |
| 20260906013249 | 21 | 48 | 4.8 | 9.7 | 0.00 | 0.00 | 0.00 | 89 | 1015.7 |
| 20260906012744 | 21 | 51 | 6.4 | 11.3 | 0.00 | 0.00 | 0.00 | 89 | 1015.8 |
| 20260906012239 | 21 | 47 | 4.8 | 11.3 | 0.00 | 0.00 | 0.00 | 89 | 1015.9 |
| 20260906011735 | 21 | 45 | 8.0 | 11.3 | 0.00 | 0.00 | 0.00 | 90 | 1015.8 |
| 20260906011234 | 21 | 72 | 8.0 | 12.9 | 0.00 | 0.00 | 0.00 | 90 | 1015.7 |
| 20260906010730 | 21 | 57 | 6.4 | 16.1 | 0.00 | 0.00 | 0.00 | 89 | 1015.7 |
| 20260906010226 | 21 | 21 | 9.7 | 16.1 | 0.00 | 0.00 | 0.00 | 89 | 1015.7 |
| 20260906005721 | 21 | 40 | 6.4 | 11.3 | 0.00 | 0.00 | 0.00 | 89 | 1015.6 |
| 20260906005220 | 21 | 9 | 9.7 | 14.5 | 0.00 | 0.00 | 0.00 | 88 | 1015.5 |
| 20260906004719 | 22 | 47 | 9.7 | 14.5 | 0.00 | 0.00 | 0.00 | 88 | 1015.4 |
| 20260906004214 | 22 | 31 | 6.4 | 12.9 | 0.00 | 0.00 | 0.00 | 87 | 1015.6 |
| 20260906003709 | 22 | 24 | 8.0 | 11.3 | 0.00 | 0.00 | 0.00 | 87 | 1015.4 |
| 20260906003206 | 22 | 45 | 4.8 | 4.8 | 0.00 | 0.00 | 0.00 | 87 | 1015.5 |
| 20260906002705 | 22 | 45 | 4.8 | 4.8 | 0.00 | 0.00 | 0.00 | 86 | 1015.5 |
| 20260906002200 | 22 | 243 | 6.4 | 11.3 | 0.00 | 0.00 | 0.00 | 85 | 1015.4 |
| 20260906001655 | 23 | 38 | 6.4 | 11.3 | 0.00 | 0.00 | 0.00 | 85 | 1015.3 |
| 20260906001155 | 23 | 74 | 6.4 | 17.7 | 0.00 | 0.00 | 0.00 | 84 | 1015.2 |
| 20260906000651 | 23 | 31 | 9.7 | 16.1 | 0.00 | 0.00 | 0.00 | 83 | 1015.3 |
| 20260906000146 | 23 | 42 | 8.0 | 14.5 | 0.00 | 0.00 | 0.00 | 83 | 1015.1 |
| 20260905235645 | 23 | 72 | 4.8 | 11.3 | 0.00 | 0.00 | 0.00 | 83 | 1015.2 |
| 20260905235140 | 24 | 29 | 9.7 | 17.7 | 0.00 | 0.00 | 0.00 | 83 | 1015.1 |
| 20260905234636 | 24 | 34 | 6.4 | 12.9 | 0.00 | 0.00 | 0.00 | 82 | 1015.2 |
| 20260905234131 | 25 | 27 | 8.0 | 12.9 | 0.00 | 0.00 | 0.00 | 81 | 1014.9 |
| 20260905233632 | 25 | 334 | 9.7 | 22.5 | 0.00 | 0.00 | 0.00 | 81 | 1014.8 |
| 20260905233126 | 25 | 22 | 8.0 | 16.1 | 0.00 | 0.00 | 0.00 | 81 | 1015.0 |
| 20260905232621 | 25 | 98 | 9.7 | 16.1 | 0.00 | 0.00 | 0.00 | 81 | 1014.8 |
| 20260905232117 | 25 | 43 | 4.8 | 11.3 | 0.00 | 0.00 | 0.00 | 80 | 1014.4 |
| 20260905231617 | 26 | 49 | 3.2 | 11.3 | 0.00 | 0.00 | 0.00 | 78 | 1014.5 |
| 20260905231113 | 26 | 50 | 6.4 | 14.5 | 0.00 | 0.00 | 0.00 | 75 | 1014.4 |
| 20260905230609 | 27 | 69 | 12.9 | 17.7 | 0.00 | 0.00 | 0.00 | 73 | 1014.8 |
| 20260905230107 | 26 | 152 | 3.2 | 9.7 | 0.00 | 0.00 | 0.00 | 74 | 1014.5 |
| 20260905225606 | 26 | 42 | 3.2 | 6.4 | 0.00 | 0.00 | 0.00 | 75 | 1014.4 |
| 20260905225102 | 26 | 18 | 4.8 | 6.4 | 0.00 | 0.00 | 0.00 | 75 | 1014.4 |
| 20260905224601 | 26 | 17 | 4.8 | 9.7 | 0.00 | 0.00 | 0.00 | 74 | 1014.3 |
| 20260905224101 | 27 | 23 | 6.4 | 9.7 | 0.00 | 0.00 | 0.00 | 72 | 1014.4 |
| 20260905223558 | 27 | 30 | 8.0 | 12.9 | 0.00 | 0.00 | 0.00 | 70 | 1014.3 |
| 20260905223054 | 27 | 85 | 6.4 | 11.3 | 0.00 | 0.00 | 0.00 | 70 | 1014.2 |
| 20260905222554 | 27 | 42 | 4.8 | 4.8 | 0.00 | 0.00 | 0.00 | 72 | 1014.3 |
| 20260905222049 | 27 | 196 | 4.8 | 11.3 | 0.00 | 0.00 | 0.00 | 70 | 1014.2 |
| 20260905221546 | 27 | 18 | 4.8 | 4.8 | 0.00 | 0.00 | 0.00 | 70 | 1014.4 |
| 20260905221041 | 27 | 212 | 3.2 | 6.4 | 0.00 | 0.00 | 0.00 | 70 | 1014.2 |
| 20260905220537 | 27 | 24 | 6.4 | 9.7 | 0.00 | 0.00 | 0.00 | 70 | 1014.2 |
| 20260905220033 | 27 | 267 | 1.6 | 4.8 | 0.00 | 0.00 | 0.00 | 71 | 1014.3 |
| 20260905215532 | 27 | 51 | 3.2 | 12.9 | 0.00 | 0.00 | 0.00 | 70 | 1014.2 |
| 20260905215029 | 27 | 53 | 8.0 | 14.5 | 0.00 | 0.00 | 0.00 | 70 | 1014.2 |
| 20260905214524 | 27 | 37 | 4.8 | 12.9 | 0.00 | 0.00 | 0.00 | 72 | 1014.1 |
| 20260905214019 | 27 | 65 | 3.2 | 11.3 | 0.00 | 0.00 | 0.00 | 73 | 1014.2 |
| 20260905213514 | 27 | 20 | 6.4 | 6.4 | 0.00 | 0.00 | 0.00 | 71 | 1014.2 |
| 20260905213010 | 27 | 31 | 3.2 | 12.9 | 0.00 | 0.00 | 0.00 | 70 | 1014.0 |
| 20260905212505 | 27 | 31 | 9.7 | 12.9 | 0.00 | 0.00 | 0.00 | 71 | 1014.4 |
| 20260905212004 | 28 | 56 | 1.6 | 6.4 | 0.00 | 0.00 | 0.00 | 71 | 1014.5 |
| 20260905211459 | 27 | 52 | 3.2 | 11.3 | 0.00 | 0.00 | 0.00 | 72 | 1014.4 |
| 20260905210955 | 27 | 18 | 3.2 | 6.4 | 0.00 | 0.00 | 0.00 | 72 | 1014.3 |
| 20260905210451 | 27 | 102 | 0.0 | 4.8 | 0.00 | 0.00 | 0.00 | 75 | 1014.4 |
| 20260905205950 | 27 | 35 | 8.0 | 9.7 | 0.00 | 0.00 | 0.00 | 74 | 1014.4 |
| 20260905205445 | 26 | 55 | 6.4 | 6.4 | 0.00 | 0.00 | 0.00 | 76 | 1014.5 |
| 20260905204943 | 26 | 62 | 4.8 | 11.3 | 0.00 | 0.00 | 0.00 | 76 | 1014.8 |
| 20260905204439 | 26 | 37 | 4.8 | 6.4 | 0.00 | 0.00 | 0.00 | 79 | 1014.8 |
| 20260905203938 | 26 | 38 | 3.2 | 9.7 | 0.00 | 0.00 | 0.00 | 77 | 1014.8 |
| 20260905203434 | 27 | 46 | 3.2 | 9.7 | 0.00 | 0.00 | 0.00 | 76 | 1014.8 |
| 20260905202930 | 26 | 279 | 6.4 | 12.9 | 0.00 | 0.00 | 0.00 | 76 | 1014.8 |
| 20260905202425 | 26 | 44 | 6.4 | 9.7 | 0.00 | 0.00 | 0.00 | 78 | 1014.9 |
| 20260905201920 | 26 | 71 | 6.4 | 11.3 | 0.00 | 0.00 | 0.00 | 79 | 1014.8 |
| 20260905201416 | 26 | 59 | 6.4 | 12.9 | 0.00 | 0.00 | 0.00 | 80 | 1014.9 |
| 20260905200915 | 25 | 75 | 4.8 | 6.4 | 0.00 | 0.00 | 0.00 | 82 | 1014.9 |
| 20260905200411 | 25 | 47 | 8.0 | 12.9 | 0.00 | 0.00 | 0.00 | 82 | 1014.9 |
| 20260905195909 | 25 | 85 | 4.8 | 12.9 | 0.00 | 0.00 | 0.00 | 83 | 1014.9 |
| 20260905195404 | 26 | 24 | 8.0 | 11.3 | 0.00 | 0.00 | 0.00 | 81 | 1015.0 |
| 20260905194900 | 26 | 50 | 4.8 | 12.9 | 0.00 | 0.00 | 0.00 | 81 | 1014.6 |
| 20260905194400 | 25 | 19 | 3.2 | 16.1 | 0.00 | 0.00 | 0.00 | 83 | 1014.9 |
| 20260905193900 | 25 | 42 | 6.4 | 12.9 | 0.00 | 0.00 | 0.00 | 83 | 1014.9 |
| 20260905193354 | 25 | 21 | 12.9 | 17.7 | 0.00 | 0.00 | 0.00 | 82 | 1015.0 |
| 20260905192850 | 25 | 49 | 9.7 | 14.5 | 0.00 | 0.00 | 0.00 | 83 | 1014.9 |
| 20260905192346 | 25 | 57 | 4.8 | 11.3 | 0.00 | 0.00 | 0.00 | 83 | 1014.8 |
| 20260905191845 | 26 | 29 | 6.4 | 11.3 | 0.00 | 0.00 | 0.00 | 83 | 1014.9 |
| 20260905191344 | 26 | 74 | 11.3 | 12.9 | 0.00 | 0.00 | 0.00 | 83 | 1014.9 |
| 20260905190843 | 26 | 28 | 8.0 | 12.9 | 0.00 | 0.00 | 0.00 | 82 | 1014.9 |
| 20260905190342 | 26 | 50 | 4.8 | 16.1 | 0.00 | 0.00 | 0.00 | 82 | 1014.9 |
| 20260905185841 | 26 | 25 | 9.7 | 12.9 | 0.00 | 0.00 | 0.00 | 79 | 1015.1 |
| 20260905185337 | 26 | 26 | 9.7 | 11.3 | 0.00 | 0.00 | 0.00 | 78 | 1015.0 |
| 20260905184835 | 26 | 90 | 1.6 | 11.3 | 0.00 | 0.00 | 0.00 | 80 | 1015.2 |
| 20260905184335 | 26 | 16 | 4.8 | 11.3 | 0.00 | 0.00 | 0.00 | 80 | 1015.1 |
| 20260905183834 | 26 | 14 | 6.4 | 12.9 | 0.00 | 0.00 | 0.00 | 78 | 1015.1 |
| 20260905183329 | 27 | 344 | 9.7 | 12.9 | 0.00 | 0.00 | 0.00 | 78 | 1015.1 |
| 20260905182824 | 27 | 18 | 4.8 | 12.9 | 0.00 | 0.00 | 0.00 | 79 | 1015.0 |
| 20260905182323 | 26 | 29 | 4.8 | 12.9 | 0.00 | 0.00 | 0.00 | 80 | 1015.0 |
| 20260905181819 | 27 | 48 | 8.0 | 12.9 | 0.00 | 0.00 | 0.00 | 78 | 1015.2 |
| 20260905181318 | 27 | 21 | 4.8 | 11.3 | 0.00 | 0.00 | 0.00 | 78 | 1015.2 |
| 20260905180818 | 27 | 103 | 3.2 | 12.9 | 0.00 | 0.00 | 0.00 | 79 | 1015.0 |
| 20260905180313 | 27 | 16 | 6.4 | 11.3 | 0.00 | 0.00 | 0.00 | 77 | 1015.2 |
| 20260905175808 | 27 | 48 | 8.0 | 14.5 | 0.00 | 0.00 | 0.00 | 77 | 1015.0 |
| 20260905175306 | 28 | 63 | 6.4 | 12.9 | 0.00 | 0.00 | 0.00 | 76 | 1015.1 |
| 20260905174757 | 27 | 107 | 6.4 | 12.9 | 0.00 | 0.00 | 0.00 | 79 | 1014.9 |
| 20260905174253 | 26 | 15 | 11.3 | 12.9 | 0.00 | 0.00 | 0.00 | 81 | 1015.1 |
| 20260905173749 | 26 | 45 | 6.4 | 14.5 | 0.00 | 0.00 | 0.00 | 81 | 1015.0 |
| 20260905173245 | 26 | 71 | 6.4 | 14.5 | 0.00 | 0.00 | 0.00 | 81 | 1014.8 |
| 20260905172744 | 26 | 32 | 4.8 | 6.4 | 0.00 | 0.00 | 0.00 | 80 | 1014.9 |
| 20260905172243 | 27 | 22 | 6.4 | 9.7 | 0.00 | 0.00 | 0.00 | 80 | 1014.9 |
| 20260905171740 | 27 | 190 | 3.2 | 11.3 | 0.00 | 0.00 | 0.00 | 79 | 1015.0 |
| 20260905171236 | 27 | 60 | 4.8 | 11.3 | 0.00 | 0.00 | 0.00 | 80 | 1014.9 |
| 20260905170732 | 27 | 246 | 6.4 | 12.9 | 0.00 | 0.00 | 0.00 | 79 | 1015.0 |
| 20260905170227 | 27 | 142 | 1.6 | 16.1 | 0.00 | 0.00 | 0.00 | 81 | 1015.1 |
| 20260905165721 | 26 | 71 | 6.4 | 11.3 | 0.00 | 0.00 | 0.00 | 82 | 1015.1 |
| 20260905165216 | 26 | 10 | 9.7 | 12.9 | 0.00 | 0.00 | 0.00 | 82 | 1015.0 |
| 20260905164716 | 26 | 101 | 8.0 | 11.3 | 0.00 | 0.00 | 0.00 | 82 | 1015.2 |
| 20260905164216 | 27 | 11 | 4.8 | 6.4 | 0.00 | 0.00 | 0.00 | 81 | 1015.1 |
| 20260905163712 | 27 | 339 | 4.8 | 11.3 | 0.00 | 0.00 | 0.00 | 81 | 1015.2 |
| 20260905163209 | 26 | 26 | 3.2 | 6.4 | 0.00 | 0.00 | 0.00 | 84 | 1015.2 |
| 20260905162704 | 26 | 212 | 4.8 | 4.8 | 0.00 | 0.00 | 0.00 | 83 | 1015.2 |
| 20260905162204 | 26 | 355 | 6.4 | 9.7 | 0.00 | 0.00 | 0.00 | 84 | 1015.2 |
| 20260905161659 | 26 | 29 | 6.4 | 9.7 | 0.00 | 0.00 | 0.00 | 85 | 1015.1 |
| 20260905161156 | 25 | 26 | 4.8 | 6.4 | 0.00 | 0.00 | 0.00 | 86 | 1014.9 |
| 20260905160650 | 25 | 32 | 6.4 | 11.3 | 0.00 | 0.00 | 0.00 | 85 | 1015.0 |
| 20260905160150 | 25 | 55 | 4.8 | 6.4 | 0.00 | 0.00 | 0.00 | 85 | 1015.0 |
| 20260905155650 | 25 | 39 | 3.2 | 4.8 | 0.00 | 0.00 | 0.00 | 87 | 1015.1 |
| 20260905155149 | 25 | 28 | 9.7 | 11.3 | 0.00 | 0.00 | 0.00 | 86 | 1015.3 |
| 20260905154643 | 25 | 101 | 0.0 | 6.4 | 0.00 | 0.00 | 0.00 | 88 | 1015.2 |
| 20260905154139 | 24 | 266 | 1.6 | 4.8 | 0.00 | 0.00 | 0.00 | 89 | 1015.1 |
| 20260905153635 | 24 | 74 | 6.4 | 9.7 | 0.00 | 0.00 | 0.00 | 88 | 1015.2 |
| 20260905153130 | 24 | 170 | 3.2 | 6.4 | 0.00 | 0.00 | 0.00 | 90 | 1015.0 |
| 20260905152625 | 24 | 34 | 4.8 | 6.4 | 0.00 | 0.00 | 0.00 | 91 | 1014.9 |
| 20260905152119 | 23 | 40 | 8.0 | 9.7 | 0.00 | 0.00 | 0.00 | 91 | 1015.0 |
| 20260905151614 | 23 | 53 | 6.4 | 11.3 | 0.00 | 0.00 | 0.00 | 91 | 1014.8 |
| 20260905151110 | 23 | 43 | 4.8 | 14.5 | 0.00 | 0.00 | 0.00 | 91 | 1014.5 |
| 20260905150605 | 23 | 78 | 6.4 | 9.7 | 0.00 | 0.00 | 0.00 | 92 | 1014.6 |
| 20260905150103 | 23 | 82 | 6.4 | 12.9 | 0.00 | 0.00 | 0.00 | 91 | 1014.4 |
| 20260905145602 | 23 | 61 | 3.2 | 11.3 | 0.00 | 0.00 | 0.00 | 93 | 1014.3 |
| 20260905145101 | 23 | 64 | 8.0 | 12.9 | 0.00 | 0.00 | 0.00 | 92 | 1014.6 |
| 20260905144557 | 23 | 43 | 6.4 | 12.9 | 0.00 | 0.00 | 0.00 | 93 | 1014.3 |
| 20260905144055 | 23 | 29 | 6.4 | 11.3 | 0.00 | 0.00 | 0.00 | 94 | 1014.3 |
| 20260905143555 | 23 | 87 | 6.4 | 11.3 | 0.00 | 0.00 | 0.00 | 94 | 1014.1 |
| 20260905143050 | 23 | 45 | 8.0 | 14.5 | 0.00 | 0.00 | 0.00 | 93 | 1014.3 |
| 20260905142550 | 23 | 7 | 8.0 | 14.5 | 0.00 | 0.00 | 0.00 | 94 | 1014.3 |
| 20260905142049 | 22 | 28 | 1.6 | 4.8 | 0.00 | 0.00 | 0.00 | 94 | 1014.3 |
| 20260905141544 | 22 | 72 | 4.8 | 9.7 | 0.00 | 0.00 | 0.00 | 94 | 1014.3 |
| 20260905141041 | 22 | 20 | 6.4 | 11.3 | 0.00 | 0.00 | 0.00 | 95 | 1014.4 |
| 20260905140542 | 22 | 68 | 3.2 | 6.4 | 0.00 | 0.00 | 0.00 | 95 | 1014.3 |
| 20260905140040 | 22 | 63 | 6.4 | 9.7 | 0.00 | 0.00 | 0.00 | 94 | 1014.2 |
| 20260905135536 | 22 | 158 | 1.6 | 3.2 | 0.00 | 0.00 | 0.00 | 95 | 1014.3 |
| 20260905135037 | 22 | 47 | 3.2 | 6.4 | 0.00 | 0.00 | 0.00 | 95 | 1014.3 |
| 20260905134537 | 22 | 99 | 1.6 | 4.8 | 0.00 | 0.00 | 0.00 | 95 | 1014.1 |
| 20260905134035 | 22 | 40 | 8.0 | 9.7 | 0.00 | 0.00 | 0.00 | 95 | 1014.2 |
| 20260905133531 | 22 | 60 | 6.4 | 12.9 | 0.00 | 0.00 | 0.00 | 94 | 1014.1 |
| 20260905133030 | 23 | 44 | 6.4 | 14.5 | 0.00 | 0.00 | 0.00 | 94 | 1014.0 |
| 20260905132530 | 23 | 58 | 6.4 | 11.3 | 0.00 | 0.00 | 0.00 | 93 | 1014.0 |
| 20260905132025 | 23 | 68 | 6.4 | 11.3 | 0.00 | 0.00 | 0.00 | 91 | 1014.1 |
| 20260905131520 | 23 | 63 | 4.8 | 9.7 | 0.00 | 0.00 | 0.00 | 91 | 1014.0 |